Back to catalog

PSLV DEB

AliveSSO
NORAD 27141·DEBRIS·🇮🇳 India

Launched Oct 22, 2001 from Satish Dhawan Space Centre

Loading…

Next Passes (next 24 hours)

TLE

FreshSource: Space-Track

Epoch: Sep 14, 2026, 09:37 UTC

1 27141U 01049CM  26257.40127630  .00000870  00000-0  92835-4 0  9990
2 27141  98.0676 312.3870 0044493 302.1401 120.4828 14.90936162335289

Track PSLV DEB in real time with AllMySat

Download on the App Store